Location: Andiroba
(19.8650°S, 43.9258°W)
Time: 00:49:03
(UTC+00:00)

Chandra Rocket (1) - Pass Details

Date: 15 June 2024
Orbit: 288 x 10876 km, 28.5° (Epoch: 24 July)

Event Time Altitude Azimuth Distance (km) Brightness Sun altitude
Exits shadow 07:12:47 39° 137° (SE) 1,179 3.5 -30.8°
Drops below altitude 10° 07:18:56 10° 114° (ESE) 3,835 6.7 -29.4°
Sets 07:25:00 0° 110° (ESE) 6,320 8.0 -28.0°
